Change the Weather History Date:

Monday, December 10, 2012

  Actual Average (KOFK) Record (KOFK)
Temperature  
Mean Temperature 16 °F 25 °F  
Max Temperature 32 °F 35 °F 62 °F (1990)
Min Temperature 0 °F 15 °F -26 °F (1919)
Degree Days  
Heating Degree Days 50 40  
Month to date heating degree days 385  
Since 1 July heating degree days 1830  
Cooling Degree Days 0 0  
Month to date cooling degree days 0  
Year to date cooling degree days 915  
Moisture  
Dew Point 4 °F    
Average Humidity 62    
Maximum Humidity 84    
Minimum Humidity 30    
Precipitation  
Precipitation 0.00 in 0.03 in 0.37 in (1970)
Month to date precipitation 0.29  
Year to date precipitation 26.95  
Snow  
Snow 0.00 in 0.20 in - ()
Month to date snowfall 2.0  
Since 1 July snowfall 6.9  
Snow Depth -    
Sea Level Pressure  
Sea Level Pressure 29.96 in    
Wind  
Wind Speed 9 mph (WSW)    
Max Wind Speed 16 mph    
Max Gust Speed 22 mph    
Visibility 10 miles    
Events      
T = Trace of Precipitation, MM = Missing Value Source: NWS Daily Summary

Daily Weather History Graph

Daily Weather History Graph

Search for Another Location

Airport or City:

Trip Planner

Search our weather history database for the weather conditions in past years. The results will help you decide how hot, cold, wet, or windy it might be!

Date:

Astronomy

Dec. 10, 2012 Rise Set
Actual Time 7:46 AM CST 4:55 PM CST
Civil Twilight 7:14 AM CST 5:27 PM CST
Nautical Twilight 6:39 AM CST 6:02 PM CST
Astronomical Twilight 6:05 AM CST 6:36 PM CST
Moon 4:29 AM CST (12/10) 2:47 PM CST (12/10)
Length of Visible Light 10h 12m
Length of Day
9h 09m
Waning Crescent, 10% of the Moon is Illuminated
Dec 10
Waning Crescent
Dec 13
New
Dec 19
First Quarter
Dec 28
Full
Jan 4
Last Quarter

Hourly Weather History & Observations

Time (CST) Temp. Windchill Dew Point Humidity Pressure Visibility Wind Dir Wind Speed Gust Speed Precip Events Conditions
12:15 AM 7.3 °F -7.9 °F 1.4 °F 77% 30.12 in 10.0 mi NW 11.5 mph 18.4 mph N/A   Clear
12:35 AM 7.2 °F -10.2 °F 1.4 °F 77% 30.12 in 10.0 mi NW 15.0 mph 19.6 mph N/A   Clear
12:55 AM 6.8 °F -8.6 °F 1.0 °F 77% 30.13 in 10.0 mi NW 11.5 mph 19.6 mph N/A   Clear
1:15 AM 6.6 °F -11.5 °F 1.0 °F 78% 30.12 in 10.0 mi NW 16.1 mph 20.7 mph N/A   Clear
1:35 AM 6.4 °F -10.5 °F 1.0 °F 78% 30.12 in 10.0 mi NW 13.8 mph 21.9 mph N/A   Clear
1:55 AM 5.9 °F -11.2 °F 0.5 °F 78% 30.11 in 10.0 mi NW 13.8 mph - N/A   Clear
2:15 AM 5.9 °F -12.4 °F 0.5 °F 78% 30.10 in 10.0 mi NW 16.1 mph 19.6 mph N/A   Clear
2:55 AM 5.9 °F -11.2 °F 0.5 °F 78% 30.10 in 10.0 mi NW 13.8 mph 21.9 mph N/A   Clear
3:15 AM 5.2 °F -11.4 °F -0.0 °F 79% 30.10 in 10.0 mi NW 12.7 mph - N/A   Clear
3:35 AM 5.0 °F -13.0 °F -0.0 °F 80% 30.10 in 10.0 mi NW 15.0 mph 18.4 mph N/A   Clear
3:55 AM 4.8 °F -11.8 °F -0.4 °F 79% 30.08 in 10.0 mi NW 12.7 mph - N/A   Clear
4:15 AM 4.6 °F -7.4 °F -0.0 °F 81% 30.08 in 10.0 mi NW 6.9 mph - N/A   Clear
4:35 AM 4.6 °F -9.5 °F -0.0 °F 81% 30.08 in 10.0 mi NW 9.2 mph - N/A   Clear
4:55 AM 4.5 °F -7.6 °F -0.2 °F 81% 30.07 in 10.0 mi NW 6.9 mph - N/A   Clear
5:15 AM 4.3 °F -9.0 °F -0.2 °F 82% 30.06 in 10.0 mi NW 8.1 mph - N/A   Clear
5:35 AM 4.5 °F -8.7 °F -0.0 °F 82% 30.07 in 10.0 mi NW 8.1 mph - N/A   Clear
6:15 AM 3.2 °F - -0.9 °F 83% 30.05 in 10.0 mi Calm Calm - N/A   Clear
6:35 AM 3.0 °F -4.4 °F -1.3 °F 82% 30.05 in 10.0 mi NW 3.5 mph - N/A   Clear
6:55 AM 2.7 °F -4.8 °F -1.3 °F 84% 30.04 in 10.0 mi WNW 3.5 mph - N/A   Clear
7:15 AM 2.5 °F -8.6 °F -1.5 °F 84% 30.05 in 10.0 mi West 5.8 mph - N/A   Clear
7:35 AM 2.8 °F - -1.5 °F 82% 30.05 in 10.0 mi Calm Calm - N/A   Clear
7:55 AM 0.9 °F - -3.6 °F 81% 30.05 in 10.0 mi Calm Calm - N/A   Clear
8:15 AM 1.2 °F - -2.6 °F 84% 30.04 in 10.0 mi Calm Calm - N/A   Clear
8:35 AM 3.2 °F -6.2 °F -0.9 °F 83% 30.04 in 10.0 mi WNW 4.6 mph - N/A   Clear
8:55 AM 5.0 °F -2.1 °F 0.9 °F 83% 30.05 in 10.0 mi West 3.5 mph - N/A   Clear
9:15 AM 6.8 °F -0.1 °F 2.8 °F 84% 30.04 in 10.0 mi NW 3.5 mph - N/A   Clear
9:35 AM 8.6 °F -1.3 °F 3.9 °F 81% 30.04 in 10.0 mi West 5.8 mph - N/A   Clear
9:55 AM 10.2 °F 2.0 °F 4.6 °F 78% 30.04 in 10.0 mi WSW 4.6 mph - N/A   Clear
10:15 AM 11.3 °F 5.1 °F 4.1 °F 73% 30.03 in 10.0 mi SW 3.5 mph - N/A   Clear
10:35 AM 12.6 °F 6.5 °F 5.2 °F 72% 30.03 in 10.0 mi SW 3.5 mph - N/A   Clear
10:55 AM 15.3 °F 6.6 °F 6.8 °F 69% 30.02 in 10.0 mi SW 5.8 mph - N/A   Clear
11:15 AM 16.7 °F 9.6 °F 7.3 °F 67% 30.01 in 10.0 mi WSW 4.6 mph - N/A   Clear
11:35 AM 18.7 °F 11.9 °F 7.3 °F 61% 29.99 in 10.0 mi SSW 4.6 mph - N/A   Clear
11:55 AM 20.7 °F 11.9 °F 6.4 °F 54% 29.97 in 10.0 mi South 6.9 mph - N/A   Clear
12:15 PM 22.1 °F 13.7 °F 6.3 °F 51% 29.95 in 10.0 mi South 6.9 mph - N/A   Clear
12:35 PM 23.4 °F 14.3 °F 6.6 °F 49% 29.93 in 10.0 mi SSE 8.1 mph - N/A   Clear
12:55 PM 24.4 °F 14.2 °F 5.2 °F 44% 29.92 in 10.0 mi South 10.4 mph - N/A   Clear
1:15 PM 26.1 °F 16.2 °F 5.7 °F 42% 29.91 in 10.0 mi South 10.4 mph - N/A   Clear
1:35 PM 27.5 °F 18.6 °F 5.9 °F 40% 29.89 in 10.0 mi South 9.2 mph - N/A   Clear
1:55 PM 28.6 °F 18.2 °F 5.5 °F 38% 29.88 in 10.0 mi South 12.7 mph 17.3 mph N/A   Clear
2:15 PM 29.8 °F 19.8 °F 4.6 °F 34% 29.86 in 10.0 mi South 12.7 mph - N/A   Clear
2:35 PM 30.7 °F 20.4 °F 3.6 °F 32% 29.85 in 10.0 mi South 13.8 mph - N/A   Clear
2:55 PM 31.3 °F 20.7 °F 3.2 °F 30% 29.85 in 10.0 mi SSW 15.0 mph - N/A   Clear
3:15 PM 31.6 °F 21.2 °F 3.0 °F 30% 29.84 in 10.0 mi SSW 15.0 mph 18.4 mph N/A   Clear
3:35 PM 31.1 °F 20.9 °F 3.6 °F 31% 29.85 in 10.0 mi SW 13.8 mph - N/A   Clear
3:55 PM 30.9 °F 20.7 °F 4.1 °F 32% 29.85 in 10.0 mi SW 13.8 mph - N/A   Clear
4:15 PM 30.4 °F 21.0 °F 4.1 °F 33% 29.85 in 10.0 mi SSW 11.5 mph - N/A   Clear
4:35 PM 28.9 °F 21.9 °F 5.0 °F 36% 29.85 in 10.0 mi SSW 6.9 mph - N/A   Clear
4:55 PM 25.0 °F 19.3 °F 4.6 °F 42% 29.85 in 10.0 mi South 4.6 mph - N/A   Clear
5:15 PM 23.7 °F - 4.1 °F 43% 29.86 in 10.0 mi Calm Calm - N/A   Clear
5:35 PM 21.7 °F - 3.9 °F 46% 29.85 in 10.0 mi Calm Calm - N/A   Clear
5:55 PM 21.6 °F - 3.7 °F 46% 29.86 in 10.0 mi Calm Calm - N/A   Clear
6:15 PM 19.4 °F 14.3 °F 3.6 °F 50% 29.86 in 10.0 mi SSW 3.5 mph - N/A   Clear
6:35 PM 18.5 °F 13.3 °F 4.5 °F 54% 29.85 in 10.0 mi South 3.5 mph - N/A   Scattered Clouds
6:55 PM 20.3 °F 13.8 °F 4.8 °F 51% 29.85 in 10.0 mi SSW 4.6 mph - N/A   Mostly Cloudy
7:15 PM 17.4 °F 9.1 °F 4.1 °F 56% 29.86 in 10.0 mi SSW 5.8 mph - N/A   Scattered Clouds
7:35 PM 18.1 °F 11.3 °F 4.8 °F 56% 29.85 in 10.0 mi SSW 4.6 mph - N/A   Scattered Clouds
7:55 PM 19.6 °F 11.7 °F 6.4 °F 57% 29.86 in 10.0 mi SSW 5.8 mph - N/A   Mostly Cloudy
8:15 PM 21.0 °F 13.4 °F 7.2 °F 55% 29.85 in 10.0 mi SSW 5.8 mph - N/A   Overcast
8:55 PM 24.6 °F 16.7 °F 8.4 °F 50% 29.85 in 10.0 mi WSW 6.9 mph - N/A   Overcast
9:15 PM 26.2 °F 17.1 °F 7.9 °F 46% 29.85 in 10.0 mi SW 9.2 mph - N/A   Overcast
9:35 PM 26.4 °F 18.0 °F 8.8 °F 47% 29.85 in 10.0 mi SW 8.1 mph - N/A   Overcast
9:55 PM 26.8 °F 18.5 °F 9.7 °F 49% 29.85 in 10.0 mi SW 8.1 mph - N/A   Overcast
10:15 PM 28.4 °F 20.4 °F 11.1 °F 48% 29.85 in 10.0 mi WSW 8.1 mph - N/A   Overcast
10:35 PM 29.7 °F 21.3 °F 13.5 °F 51% 29.86 in 10.0 mi West 9.2 mph - N/A   Overcast
11:15 PM 31.1 °F 22.4 °F 18.1 °F 59% 29.86 in 10.0 mi West 10.4 mph - N/A   Overcast
11:35 PM 31.5 °F 22.3 °F 18.7 °F 59% 29.88 in 10.0 mi WNW 11.5 mph - N/A   Overcast
11:55 PM 32.0 °F 24.2 °F 19.6 °F 60% 29.88 in 10.0 mi WNW 9.2 mph 19.6 mph N/A   Overcast